INTELSAT 30 (IS-30)     
1 40271U 14062A   19260.60560431 -.00000155  00000-0  00000-0 0  9992
2 40271   0.0224 173.0326 0001552 265.1003  41.0755  1.00268768 17925
ARSAT 1                 
1 40272U 14062B   19261.47160225 -.00000263  00000-0  00000+0 0  9995
2 40272   0.0162 182.0930 0001572   2.0130 270.9779  1.00271715 18183
ARIANE 5 R/B            
1 40273U 14062C   19261.07440966  .00001019  00000-0  30423-3 0  9990
2 40273   6.0672 117.0984 7192322 275.9808  13.5025  2.39420335 42276
ARIANE 5 DEB [SYLDA]    
1 40274U 14062D   19261.37511382  .00172413  00000-0  39076-2 0  9994
2 40274   6.2773 296.7719 5253638 272.6440  31.0276  5.31797783 63493